FW0394 Weather Reports


time (UTC)temp
C
wind
direction
speed
KPH
gust
KPH
rain 1hr
cm
rain 24hr
cm
rain mn
cm
humidity
%
barometer
mb
20260502151714 11 245 4.8 12.9 0.00 0.00 0.00 47 1021.0
20260502151003 11 241 3.2 11.3 0.00 0.00 0.00 48 1021.0
20260502150503 11 236 4.8 11.3 0.00 0.00 0.00 51 1021.0
20260502130503 3 0 0.0 0.0 0.00 0.00 0.00 76 1021.2
20260502123713 2 0 0.0 0.0 0.00 0.00 0.00 78 1020.9
20260502123003 2 0 0.0 0.0 0.00 0.00 0.00 79 1021.0
20260502122503 1 0 0.0 0.0 0.00 0.00 0.00 79 1020.9
20260502122003 1 0 0.0 0.0 0.00 0.00 0.00 80 1020.9
20260502121712 1 0 0.0 0.0 0.00 0.00 0.00 80 1020.8
20260502121213 1 0 0.0 0.0 0.00 0.00 0.00 80 1020.8
20260502120503 1 0 0.0 0.0 0.00 0.00 0.00 81 1020.8
20260502115713 1 0 0.0 0.0 0.00 0.00 0.00 81 1020.9
20260502115214 1 0 0.0 0.0 0.00 0.00 0.00 80 1020.8
20260502114712 1 0 0.0 0.0 0.00 0.00 0.00 80 1020.8
20260502114003 1 0 0.0 0.0 0.00 0.00 0.00 79 1020.8
20260502113712 1 0 0.0 0.0 0.00 0.00 0.00 79 1020.8
20260502113003 1 0 0.0 0.0 0.00 0.00 0.00 79 1020.8
20260502112503 1 0 0.0 0.0 0.00 0.00 0.00 79 1020.8
20260502112004 1 0 0.0 0.0 0.00 0.00 0.00 79 1020.7
20260502111503 1 0 0.0 0.0 0.00 0.00 0.00 80 1020.8
20260502111003 1 30 0.0 4.8 0.00 0.00 0.00 80 1020.7
20260502110503 1 30 1.6 4.8 0.00 0.00 0.00 81 1020.8
20260502110004 1 30 0.0 3.2 0.00 0.00 0.00 84 1020.8
20260502105503 1 31 0.0 3.2 0.00 0.00 0.00 83 1020.7
20260502105003 1 0 0.0 0.0 0.00 0.00 0.00 80 1020.7
20260502104714 1 0 0.0 0.0 0.00 0.00 0.00 79 1020.7
20260502104003 1 0 0.0 0.0 0.00 0.00 0.00 79 1020.7
20260502103503 1 0 0.0 0.0 0.00 0.00 0.00 79 1020.6
20260502103004 1 0 0.0 0.0 0.00 0.00 0.00 79 1020.7
20260502102503 1 0 0.0 0.0 0.00 0.00 0.00 78 1020.6
20260502102003 1 0 0.0 0.0 0.00 0.00 0.00 78 1020.6
20260502101503 1 0 0.0 0.0 0.00 0.00 0.00 78 1020.5
20260502101213 1 0 0.0 0.0 0.00 0.00 0.00 78 1020.5
20260502100503 1 0 0.0 0.0 0.00 0.00 0.00 78 1020.6
20260502091503 2 0 0.0 0.0 0.00 0.00 0.00 74 1020.3
20260502091003 2 0 0.0 0.0 0.00 0.00 0.00 74 1020.2
20260502090503 2 0 0.0 0.0 0.00 0.00 0.00 74 1020.3
20260502071503 3 0 0.0 0.0 0.00 0.00 0.00 71 1020.4
20260502071003 3 0 0.0 0.0 0.00 0.00 0.00 71 1020.3
20260502070503 3 0 0.0 0.0 0.00 0.00 0.00 70 1020.3
20260502070004 3 0 0.0 0.0 0.00 0.00 0.00 70 1020.4
20260502065713 3 0 0.0 0.0 0.00 0.00 0.00 70 1020.4
20260502065214 3 0 0.0 0.0 0.00 0.00 0.00 69 1020.3
20260502064503 3 0 0.0 0.0 0.00 0.00 0.00 69 1020.2
20260502064003 3 0 0.0 0.0 0.00 0.00 0.00 68 1020.3
20260502063503 4 0 0.0 0.0 0.00 0.00 0.00 68 1020.3
20260502063003 4 0 0.0 0.0 0.00 0.00 0.00 68 1020.4
20260502062503 4 0 0.0 0.0 0.00 0.00 0.00 67 1020.3
20260502062004 4 0 0.0 0.0 0.00 0.00 0.00 66 1020.3
20260502061714 4 0 0.0 0.0 0.00 0.00 0.00 65 1020.2
20260502061003 4 0 0.0 0.0 0.00 0.00 0.00 66 1020.1
20260502060503 4 0 0.0 0.0 0.00 0.00 0.00 65 1020.2
20260502060003 5 0 0.0 0.0 0.00 0.00 0.00 65 1020.1
20260502055714 5 0 0.0 0.0 0.00 0.00 0.00 64 1020.2
20260502055003 5 0 0.0 0.0 0.00 0.00 0.00 63 1020.1
20260502054503 5 0 0.0 0.0 0.00 0.00 0.00 63 1020.1
20260502054003 5 0 0.0 0.0 0.00 0.00 0.00 63 1020.0
20260502053714 5 0 0.0 0.0 0.00 0.00 0.00 62 1019.9
20260502053003 5 0 0.0 0.0 0.00 0.00 0.00 61 1020.0
20260502052503 5 0 0.0 0.0 0.00 0.00 0.00 61 1019.9
20260502052003 5 0 0.0 0.0 0.00 0.00 0.00 60 1019.9
20260502051503 5 0 0.0 0.0 0.00 0.00 0.00 58 1019.9
20260502051003 5 0 0.0 0.0 0.00 0.00 0.00 59 1019.9
20260502050503 5 0 0.0 0.0 0.00 0.00 0.00 59 1019.8
20260502050004 5 0 0.0 0.0 0.00 0.00 0.00 59 1019.8
20260502045503 5 0 0.0 0.0 0.00 0.00 0.00 58 1019.8
20260502045003 5 0 0.0 0.0 0.00 0.00 0.00 58 1019.8
20260502044714 5 0 0.0 0.0 0.00 0.00 0.00 58 1019.7
20260502044003 6 0 0.0 0.0 0.00 0.00 0.00 57 1019.6
20260502043503 6 0 0.0 0.0 0.00 0.00 0.00 57 1019.7
20260502043003 6 0 0.0 0.0 0.00 0.00 0.00 56 1019.7
20260502042503 6 0 0.0 0.0 0.00 0.00 0.00 56 1019.7
20260502042004 6 0 0.0 0.0 0.00 0.00 0.00 55 1019.7
20260502041503 6 0 0.0 0.0 0.00 0.00 0.00 55 1019.7
20260502041003 6 0 0.0 0.0 0.00 0.00 0.00 54 1019.6
20260502040503 6 0 0.0 0.0 0.00 0.00 0.00 54 1019.7
20260502040003 7 0 0.0 0.0 0.00 0.00 0.00 53 1019.6
20260502035713 7 0 0.0 0.0 0.00 0.00 0.00 53 1019.6
20260502035003 7 0 0.0 0.0 0.00 0.00 0.00 52 1019.7
20260502034503 7 0 0.0 0.0 0.00 0.00 0.00 52 1019.6
20260502034003 7 0 0.0 0.0 0.00 0.00 0.00 51 1019.6
20260502033503 7 0 0.0 0.0 0.00 0.00 0.00 51 1019.6
20260502033003 7 0 0.0 0.0 0.00 0.00 0.00 50 1019.6
20260502032713 7 0 0.0 0.0 0.00 0.00 0.00 50 1019.6
20260502032003 8 0 0.0 0.0 0.00 0.00 0.00 48 1019.5
20260502031713 8 0 0.0 0.0 0.00 0.00 0.00 48 1019.5
20260502031003 8 0 0.0 0.0 0.00 0.00 0.00 48 1019.5
20260502030503 8 0 0.0 0.0 0.00 0.00 0.00 47 1019.4
20260502030003 8 0 0.0 0.0 0.00 0.00 0.00 46 1019.4
20260502025503 8 0 0.0 1.6 0.00 0.00 0.00 46 1019.3
20260502025003 9 31 0.0 1.6 0.00 0.00 0.00 45 1019.3
20260502024503 9 31 0.0 1.6 0.00 0.00 0.00 45 1019.2
20260502024003 9 31 0.0 3.2 0.00 0.00 0.00 44 1019.2
20260502023503 9 30 0.0 4.8 0.00 0.00 0.00 44 1019.1
20260502023003 10 30 1.6 4.8 0.00 0.00 0.00 43 1019.1
20260502022503 10 30 1.6 6.4 0.00 0.00 0.00 44 1019.1
20260502022214 10 30 1.6 6.4 0.00 0.00 0.00 43 1019.0
20260502021503 10 30 1.6 4.8 0.00 0.00 0.00 44 1018.9
20260502021003 10 30 1.6 4.8 0.00 0.00 0.00 43 1018.8
20260502020503 10 30 0.0 4.8 0.00 0.00 0.00 47 1018.7
20260502020004 10 28 0.0 3.2 0.00 0.00 0.00 46 1018.7
20260502015503 10 28 0.0 3.2 0.00 0.00 0.00 42 1018.6
20260502015214 10 28 0.0 3.2 0.00 0.00 0.00 43 1018.6
20260502014503 10 22 1.6 6.4 0.00 0.00 0.00 41 1018.5
20260502014004 11 25 1.6 6.4 0.00 0.00 0.00 41 1018.4
20260502013503 11 21 1.6 6.4 0.00 0.00 0.00 40 1018.4
20260502013003 11 355 1.6 4.8 0.00 0.00 0.00 41 1018.3
20260502012504 11 334 0.0 4.8 0.00 0.00 0.00 41 1018.4
20260502012003 11 324 0.0 4.8 0.00 0.00 0.00 41 1018.2
20260502011715 11 322 1.6 4.8 0.00 0.00 0.00 41 1018.3
20260502011003 11 342 1.6 6.4 0.00 0.00 0.00 37 1018.2
20260502010503 11 13 3.2 12.9 0.00 0.00 0.00 37 1018.1
20260502010213 11 14 3.2 12.9 0.00 0.00 0.00 38 1018.1
20260502005503 12 25 4.8 14.5 0.00 0.00 0.00 38 1017.9
20260502005003 12 27 3.2 14.5 0.00 0.00 0.00 36 1017.9
20260502004503 12 14 4.8 16.1 0.00 0.00 0.00 37 1017.9
20260502004004 12 9 3.2 16.1 0.00 0.00 0.00 37 1017.8
20260502003503 12 330 3.2 11.3 0.00 0.00 0.00 36 1017.8
20260502003213 12 317 3.2 12.9 0.00 0.00 0.00 36 1017.7
20260502002714 12 351 4.8 12.9 0.00 0.00 0.00 36 1017.7
20260502002003 12 352 3.2 14.5 0.00 0.00 0.00 34 1017.7
20260502001503 13 318 3.2 11.3 0.00 0.00 0.00 36 1017.7
20260502001004 13 315 3.2 12.9 0.00 0.00 0.00 36 1017.7
20260502000714 13 332 4.8 12.9 0.00 0.00 0.00 34 1017.7
20260502000003 13 336 4.8 14.5 0.00 0.00 0.00 36 1017.7
20260501235503 13 358 3.2 14.5 0.00 0.00 0.00 34 1017.7
20260501235003 13 9 4.8 17.7 0.00 0.00 0.00 35 1017.6
20260501234714 13 14 4.8 17.7 0.00 0.00 0.00 34 1017.6
20260501234003 13 21 3.2 16.1 0.00 0.00 0.00 37 1017.6
20260501233503 13 1 3.2 12.9 0.00 0.00 0.00 35 1017.7
20260501233003 13 328 4.8 14.5 0.00 0.00 0.00 38 1017.7
20260501232503 13 313 4.8 14.5 0.00 0.00 0.00 34 1017.6
20260501232003 13 318 4.8 14.5 0.00 0.00 0.00 35 1017.5
20260501231503 13 336 4.8 19.3 0.00 0.00 0.00 33 1017.5
20260501231004 13 343 4.8 19.3 0.00 0.00 0.00 33 1017.5
20260501230503 13 344 4.8 14.5 0.00 0.00 0.00 33 1017.4
20260501230003 14 349 6.4 19.3 0.00 0.00 0.00 33 1017.6
20260501225503 14 349 6.4 19.3 0.00 0.00 0.00 34 1017.6
20260501225003 15 321 4.8 16.1 0.00 0.00 0.00 32 1017.5
20260501224503 15 302 4.8 16.1 0.00 0.00 0.00 34 1017.5
20260501224212 15 307 4.8 16.1 0.00 0.00 0.00 32 1017.5
20260501223503 15 293 6.4 22.5 0.00 0.00 0.00 32 1017.6
20260501223003 15 344 4.8 17.7 0.00 0.00 0.00 34 1017.6
20260501222503 14 339 6.4 12.9 0.00 0.00 0.00 33 1017.5
20260501222003 15 311 6.4 25.7 0.00 0.00 0.00 30 1017.5
20260501221503 15 297 6.4 25.7 0.00 0.00 0.00 33 1017.5
20260501221003 15 301 6.4 20.9 0.00 0.00 0.00 33 1017.2
20260501220503 15 332 6.4 17.7 0.00 0.00 0.00 35 1017.4
20260501220212 15 333 6.4 17.7 0.00 0.00 0.00 35 1017.5
20260501215503 15 298 4.8 17.7 0.00 0.00 0.00 33 1017.4
20260501215003 15 293 6.4 20.9 0.00 0.00 0.00 35 1017.4
20260501214503 15 306 6.4 20.9 0.00 0.00 0.00 33 1017.5
20260501214003 15 286 6.4 22.5 0.00 0.00 0.00 34 1017.6
20260501213503 15 279 6.4 22.5 0.00 0.00 0.00 30 1017.4
20260501213003 15 290 6.4 20.9 0.00 0.00 0.00 34 1017.5
20260501212503 15 308 6.4 20.9 0.00 0.00 0.00 31 1017.4
20260501212003 14 333 4.8 14.5 0.00 0.00 0.00 32 1017.5
20260501211503 14 337 6.4 22.5 0.00 0.00 0.00 33 1017.6
20260501211214 14 345 8.0 29.0 0.00 0.00 0.00 33 1017.7
20260501210716 14 360 6.4 29.0 0.00 0.00 0.00 36 1017.6
20260501210214 15 355 4.8 16.1 0.00 0.00 0.00 35 1017.6
20260501205503 15 325 6.4 17.7 0.00 0.00 0.00 36 1017.6
20260501205003 15 329 4.8 16.1 0.00 0.00 0.00 39 1017.7
20260501204503 15 348 4.8 14.5 0.00 0.00 0.00 37 1017.7
20260501204003 15 334 6.4 20.9 0.00 0.00 0.00 38 1017.8
20260501203503 15 308 4.8 20.9 0.00 0.00 0.00 38 1017.8
20260501203214 15 304 4.8 17.7 0.00 0.00 0.00 39 1017.7
20260501202503 14 309 4.8 17.7 0.00 0.00 0.00 45 1017.7
20260501202003 14 311 4.8 20.9 0.00 0.00 0.00 43 1017.8
20260501201503 14 326 4.8 20.9 0.00 0.00 0.00 39 1017.8
20260501201003 13 356 6.4 19.3 0.00 0.00 0.00 44 1017.8
20260501200504 14 354 6.4 19.3 0.00 0.00 0.00 40 1017.8
20260501200003 14 13 4.8 17.7 0.00 0.00 0.00 43 1017.8
20260501195712 14 19 6.4 24.1 0.00 0.00 0.00 41 1017.9
20260501195003 14 4 6.4 24.1 0.00 0.00 0.00 39 1017.9
20260501194712 14 336 4.8 17.7 0.00 0.00 0.00 40 1017.9
20260501194003 15 337 4.8 20.9 0.00 0.00 0.00 44 1017.9
20260501193714 14 359 4.8 20.9 0.00 0.00 0.00 42 1018.0
20260501192503 13 358 6.4 17.7 0.00 0.00 0.00 39 1018.0
20260501192003 14 352 6.4 17.7 0.00 0.00 0.00 40 1017.9
20260501191503 14 321 6.4 24.1 0.00 0.00 0.00 44 1017.9
20260501191003 14 311 6.4 24.1 0.00 0.00 0.00 41 1017.9
20260501190503 14 2 4.8 16.1 0.00 0.00 0.00 46 1017.9
20260501190003 13 28 4.8 16.1 0.00 0.00 0.00 43 1017.9
20260501185503 13 4 4.8 16.1 0.00 0.00 0.00 43 1018.0
20260501185003 14 330 4.8 12.9 0.00 0.00 0.00 45 1018.0
20260501184504 13 337 6.4 24.1 0.00 0.00 0.00 47 1018.0
20260501184213 13 318 6.4 24.1 0.00 0.00 0.00 45 1018.0
20260501183503 13 294 4.8 17.7 0.00 0.00 0.00 45 1018.1
20260501183003 13 334 4.8 17.7 0.00 0.00 0.00 45 1018.1
20260501182503 14 7 6.4 24.1 0.00 0.00 0.00 52 1018.1
20260501182003 13 18 6.4 24.1 0.00 0.00 0.00 48 1018.1
20260501181503 13 340 6.4 19.3 0.00 0.00 0.00 45 1018.1
20260501181003 13 341 4.8 12.9 0.00 0.00 0.00 54 1018.1
20260501180503 12 14 4.8 16.1 0.00 0.00 0.00 52 1018.2
20260501180004 13 4 6.4 16.1 0.00 0.00 0.00 47 1018.3
20260501175503 13 12 6.4 17.7 0.00 0.00 0.00 48 1018.1
20260501175003 13 16 6.4 22.5 0.00 0.00 0.00 46 1018.3
20260501174503 13 311 6.4 22.5 0.00 0.00 0.00 50 1018.4
20260501174212 13 318 6.4 19.3 0.00 0.00 0.00 53 1018.3
20260501173503 13 350 6.4 19.3 0.00 0.00 0.00 49 1018.4
20260501173003 13 330 4.8 16.1 0.00 0.00 0.00 50 1018.5
20260501172503 13 359 6.4 14.5 0.00 0.00 0.00 49 1018.4
20260501172003 12 27 6.4 19.3 0.00 0.00 0.00 51 1018.5
20260501171713 13 20 6.4 19.3 0.00 0.00 0.00 50 1018.4
20260501171003 13 352 4.8 16.1 0.00 0.00 0.00 53 1018.4
20260501170503 12 335 6.4 17.7 0.00 0.00 0.00 51 1018.3
20260501170004 13 333 6.4 17.7 0.00 0.00 0.00 52 1018.4
20260501165503 12 353 6.4 16.1 0.00 0.00 0.00 57 1018.4
20260501165003 12 358 6.4 19.3 0.00 0.00 0.00 56 1018.5
20260501164503 12 341 6.4 19.3 0.00 0.00 0.00 54 1018.5
20260501164003 12 349 4.8 14.5 0.00 0.00 0.00 56 1018.4
20260501163503 12 29 4.8 14.5 0.00 0.00 0.00 57 1018.4
20260501163003 12 32 4.8 20.9 0.00 0.00 0.00 61 1018.4
20260501162503 12 340 4.8 20.9 0.00 0.00 0.00 59 1018.4
20260501162214 12 341 6.4 20.9 0.00 0.00 0.00 61 1018.3
20260501161503 12 344 8.0 24.1 0.00 0.00 0.00 59 1018.4
20260501161214 12 341 6.4 24.1 0.00 0.00 0.00 60 1018.4
20260501160503 12 331 6.4 16.1 0.00 0.00 0.00 58 1018.3
20260501160003 12 322 6.4 17.7 0.00 0.00 0.00 58 1018.4
20260501155503 12 329 6.4 19.3 0.00 0.00 0.00 61 1018.3
20260501155003 11 346 4.8 19.3 0.00 0.00 0.00 61 1018.2
20260501154713 11 345 4.8 14.5 0.00 0.00 0.00 60 1018.3
20260501154003 11 332 6.4 14.5 0.00 0.00 0.00 64 1018.2
20260501153713 11 336 4.8 14.5 0.00 0.00 0.00 63 1018.3
20260501153003 11 300 3.2 17.7 0.00 0.00 0.00 65 1018.2
20260501152503 11 294 4.8 17.7 0.00 0.00 0.00 63 1018.2